RYR29HK EIDW-LDDU

Flight info

Callsign RYR29HK
Flight time N/A
Altitude 33000
Route ENDEQ3J ENDEQ Q36 EPOXI L15 FINMA DCT CHT DCT ITVIP DCT KONAN DCT KOK UL607 REMBA DCT RITAX DCT KRH DCT UTABA DCT BEMKI DCT ELMEM DCT DIRAB DCT VESAL DCT BADOP DCT PEVAL DCT NAKIT DCT SIPAL
Aircraft B738/M-SDE2E3FGHIRWXY/LB1

Departure

Time 2026-05-01 13:29
Airport Dublin Airport (EIDW)

Arrival

Time N/A
Airport Dubrovnik Ruđer Bošković Airport (LDDU)
Time Latitude Longitude Altitude Speed Heading
2026-05-01 13:08 53.43105 -6.24894 210 ft 0 kts 185°
2026-05-01 13:21 53.43146 -6.24890 210 ft 4 kts 180°
2026-05-01 13:21 53.43173 -6.24892 210 ft 4 kts 172°
2026-05-01 13:21 53.43199 -6.24902 210 ft 4 kts 150°
2026-05-01 13:21 53.43213 -6.24925 220 ft 1 kts 96°
2026-05-01 13:22 53.43213 -6.24926 220 ft 1 kts 96°
2026-05-01 13:24 53.43213 -6.24924 210 ft 1 kts 96°
2026-05-01 13:25 53.43205 -6.24789 210 ft 9 kts 96°
2026-05-01 13:25 53.43199 -6.24682 212 ft 9 kts 95°
2026-05-01 13:25 53.43193 -6.24577 210 ft 9 kts 95°
2026-05-01 13:25 53.43190 -6.24475 210 ft 9 kts 77°
2026-05-01 13:26 53.43233 -6.24413 210 ft 9 kts 12°
2026-05-01 13:26 53.43295 -6.24404 210 ft 9 kts
2026-05-01 13:26 53.43342 -6.24454 216 ft 9 kts 290°
2026-05-01 13:26 53.43364 -6.24548 217 ft 9 kts 314°
2026-05-01 13:27 53.43421 -6.24560 215 ft 9 kts
2026-05-01 13:27 53.43479 -6.24547 216 ft 8 kts
2026-05-01 13:27 53.43537 -6.24791 212 ft 42 kts 275°
2026-05-01 13:28 53.43665 -6.27309 246 ft 162 kts 272°
2026-05-01 13:28 53.43757 -6.29266 763 ft 174 kts 273°
2026-05-01 13:29 53.44905 -6.33140 2122 ft 195 kts 307°
2026-05-01 13:29 53.47136 -6.36341 2658 ft 243 kts 347°
2026-05-01 13:30 53.52650 -6.30436 4812 ft 270 kts 88°
2026-05-01 13:31 53.52572 -6.24104 6189 ft 275 kts 96°
2026-05-01 13:31 53.52351 -6.14353 8256 ft 281 kts 97°
2026-05-01 13:32 53.52231 -6.07720 9078 ft 286 kts 98°
2026-05-01 13:33 53.50808 -5.97253 9546 ft 335 kts 109°
2026-05-01 13:33 53.49616 -5.89282 10069 ft 364 kts 108°
2026-05-01 13:34 53.48445 -5.80938 11188 ft 370 kts 107°
2026-05-01 13:34 53.47398 -5.72418 12339 ft 376 kts 106°
2026-05-01 13:35 53.46331 -5.63743 13497 ft 383 kts 106°
2026-05-01 13:35 53.45782 -5.59348 14077 ft 386 kts 106°
2026-05-01 13:35 53.44662 -5.50478 15238 ft 391 kts 106°
2026-05-01 13:36 53.44299 -5.45897 15618 ft 404 kts 98°
2026-05-01 13:36 53.44188 -5.41117 15966 ft 414 kts 96°
2026-05-01 13:36 53.44076 -5.31388 17043 ft 418 kts 96°
2026-05-01 13:37 53.43976 -5.26503 17572 ft 420 kts 97°
2026-05-01 13:37 53.43847 -5.21657 18072 ft 423 kts 97°
2026-05-01 13:37 53.43703 -5.16646 18544 ft 426 kts 97°
2026-05-01 13:37 53.43557 -5.11716 18928 ft 430 kts 97°
2026-05-01 13:38 53.43263 -5.01636 19817 ft 434 kts 97°
2026-05-01 13:38 53.43115 -4.96569 20257 ft 437 kts 97°
2026-05-01 13:38 53.42963 -4.91469 20685 ft 439 kts 97°
2026-05-01 13:39 53.42807 -4.86341 21099 ft 441 kts 97°
2026-05-01 13:39 53.42641 -4.81188 21503 ft 444 kts 98°
2026-05-01 13:39 53.42464 -4.76009 21896 ft 446 kts 98°
2026-05-01 13:39 53.42281 -4.70802 22281 ft 448 kts 98°
2026-05-01 13:40 53.42096 -4.65571 22663 ft 450 kts 98°
2026-05-01 13:40 53.41909 -4.60320 22987 ft 453 kts 98°
2026-05-01 13:40 53.41719 -4.55027 23318 ft 456 kts 98°
2026-05-01 13:40 53.41526 -4.49708 23679 ft 458 kts 98°
2026-05-01 13:41 53.41330 -4.44372 23997 ft 460 kts 98°
2026-05-01 13:41 53.41132 -4.39016 24300 ft 462 kts 98°
2026-05-01 13:41 53.40931 -4.33628 24597 ft 464 kts 98°
2026-05-01 13:41 53.40726 -4.28222 24883 ft 465 kts 98°
2026-05-01 13:42 53.40518 -4.22792 25170 ft 467 kts 98°
2026-05-01 13:42 53.40306 -4.17349 25445 ft 469 kts 98°
2026-05-01 13:42 53.40092 -4.11882 25699 ft 471 kts 98°
2026-05-01 13:42 53.39876 -4.06393 25916 ft 473 kts 98°
2026-05-01 13:43 53.39654 -4.00876 26158 ft 475 kts 98°
2026-05-01 13:43 53.39430 -3.95348 26472 ft 475 kts 98°
2026-05-01 13:43 53.39212 -3.89825 26879 ft 474 kts 97°
2026-05-01 13:43 53.38998 -3.84333 27304 ft 472 kts 97°
2026-05-01 13:44 53.38783 -3.78855 27680 ft 471 kts 97°
2026-05-01 13:44 53.38565 -3.73389 28017 ft 471 kts 98°
2026-05-01 13:44 53.38309 -3.67922 28362 ft 469 kts 101°
2026-05-01 13:44 53.37684 -3.62680 28710 ft 463 kts 110°
2026-05-01 13:45 53.36567 -3.57670 29078 ft 458 kts 118°
2026-05-01 13:45 53.35240 -3.52830 29498 ft 458 kts 118°
2026-05-01 13:45 53.33899 -3.48008 29889 ft 456 kts 121°
2026-05-01 13:45 53.32259 -3.43489 30352 ft 451 kts 129°
2026-05-01 13:46 53.30266 -3.39487 30735 ft 446 kts 135°
2026-05-01 13:46 53.28180 -3.35638 31020 ft 446 kts 135°
2026-05-01 13:46 53.26095 -3.31791 31255 ft 447 kts 135°
2026-05-01 13:46 53.24021 -3.27923 31520 ft 447 kts 135°
2026-05-01 13:47 53.21962 -3.24045 31821 ft 446 kts 134°
2026-05-01 13:47 53.19908 -3.20168 32129 ft 445 kts 134°
2026-05-01 13:47 53.17860 -3.16309 32429 ft 444 kts 135°
2026-05-01 13:47 53.15811 -3.12458 32669 ft 444 kts 135°
2026-05-01 13:48 53.13758 -3.08608 32907 ft 445 kts 135°
2026-05-01 13:48 53.11702 -3.04759 33136 ft 444 kts 134°
2026-05-01 13:48 53.09639 -3.00900 33142 ft 448 kts 134°
2026-05-01 13:49 53.05475 -2.93125 33153 ft 450 kts 134°
2026-05-01 13:49 53.01323 -2.85400 33150 ft 447 kts 135°
2026-05-01 13:50 52.97211 -2.77772 33143 ft 445 kts 135°
2026-05-01 13:50 52.93086 -2.70141 33157 ft 444 kts 135°
2026-05-01 13:51 52.88968 -2.62542 33158 ft 443 kts 135°
2026-05-01 13:51 52.84843 -2.54952 33157 ft 443 kts 135°
2026-05-01 13:52 52.80715 -2.47381 33151 ft 444 kts 135°
2026-05-01 13:52 52.76561 -2.39802 33158 ft 446 kts 135°
2026-05-01 13:53 52.72385 -2.32207 33148 ft 448 kts 135°
2026-05-01 13:53 52.66106 -2.20823 33149 ft 450 kts 135°
2026-05-01 13:54 52.61882 -2.13191 33146 ft 451 kts 135°
2026-05-01 13:54 52.57652 -2.05572 33146 ft 451 kts 135°